Hourly Data Report for July 26, 2021

ALGONQUIN PARK EAST GATE
ONTARIO
Current Station Operator: ECCC - MSC

45°32'00.000" N
78°16'00.000" W
397.00 m
6080192
71581
TNK

Download Data

Hourly Data (July 2021)
Hourly Data Report for July 26, 2021
TIME
LST
Temp Definition
°C
Dew Point Definition
°C
Rel Hum Definition
%
Precip. Amount Definition
mm

Wind Dir Definition
10's deg

Wind Spd Definition
km/h
Visibility Definition
km
Stn Press Definition
kPa
Hmdx Definition


Wind Chill Definition


Weather Definition


00:00 15.0 14.4 96 0.0   0   96.50     LegendNANA
01:00 14.2 13.7 97 0.0   0   96.50     LegendNANA
02:00 13.8 13.4 97 0.0   0   96.49     LegendNANA
03:00 13.1 12.7 97 0.0   0   96.48     LegendNANA
04:00 12.4 12.0 97 0.0   0   96.48     LegendNANA
05:00 12.1 11.7 98 0.0   0   96.51     LegendNANA
06:00 12.5 12.2 98 0.0   0   96.52     LegendNANA
07:00 16.3 15.8 97 0.0 24 1   96.56     LegendNANA
08:00 20.6 16.4 77 0.0 25 4   96.60 25   LegendNANA
09:00 22.8 15.0 62 0.0 29 5   96.59 27   LegendNANA
10:00 24.4 14.5 54 0.0 28 7   96.58 28   LegendNANA
11:00 25.6 14.1 49 0.0 27 6   96.56 29   LegendNANA
12:00 25.5 13.6 48 0.0 31 7   96.55 29   LegendNANA
13:00 25.6 13.2 46 0.0 30 6   96.56 29   LegendNANA
14:00 26.9 13.2 43 0.0 30 6   96.57 30   LegendNANA
15:00 26.8 13.2 43 0.0 29 6   96.59 30   LegendNANA
16:00 25.7 11.6 41 0.0 31 6   96.59 28   LegendNANA
17:00 24.5 13.4 50 0.0 32 5   96.61 28   LegendNANA
18:00 23.1 12.4 51 0.0 31 7   96.64 26   LegendNANA
19:00 20.8 13.7 64 0.0 32 2   96.66     LegendNANA
20:00 17.6 13.7 78 0.0   0   96.67     LegendNANA
21:00 15.8 13.9 88 0.0   0   96.75     LegendNANA
22:00 14.8 13.6 92 0.0   0   96.80     LegendNANA
23:00 14.7 13.8 94 0.0   0   96.78     LegendNANA

Notes on Data Quality.

Legend

  • E = Estimated
  • M = Missing
  • NA = Not Available*
  • [empty] = Indicates an unobserved value
Date modified: